Zurück zum Katalog

STARLINK-11482

AktivKommunikationVLEO
NORAD 62520·PAYLOAD·🇺🇸 United States

Gestartet Jan 8, 2025 von Cape Canaveral Space Force Station

Loading…

Nächste Überflüge (nächste 24 Stunden)

TLE

AktuellSource: CelesTrak SupGP

Epoche: Sep 14, 2026, 21:11 UTC

1 62520C 25004K   26257.88312500  .00065641  00000+0  50955-3 0  2570
2 62520  43.0009  10.0021 0001790 264.7904 231.9845 15.70818972    17

Verfolge STARLINK-11482 in Echtzeit mit AllMySat

Download on the App Store